TimeMDT,TemperatureF,Dew PointF,Humidity,Sea Level PressureIn,VisibilityMPH,Wind Direction,Wind SpeedMPH,Gust SpeedMPH,PrecipitationIn,Events,Conditions,WindDirDegrees,DateUTC
12:53 AM,30.9,28.0,89,29.97,-9999.0,WSW,5.8,-,N/A,,Partly Cloudy,240,2013-04-21 06:53:00
1:53 AM,32.0,28.0,85,29.95,-9999.0,WSW,3.5,-,N/A,,Scattered Clouds,250,2013-04-21 07:53:00
2:53 AM,32.0,26.1,79,29.95,-9999.0,WSW,11.5,-,N/A,,Mostly Cloudy,240,2013-04-21 08:53:00
3:53 AM,32.0,27.0,82,29.94,-9999.0,SW,12.7,-,N/A,,Mostly Cloudy,220,2013-04-21 09:53:00
4:53 AM,33.1,26.1,75,29.95,-9999.0,WSW,16.1,-,N/A,,Overcast,240,2013-04-21 10:53:00
5:53 AM,32.0,26.1,79,29.99,-9999.0,WSW,13.8,-,N/A,,Overcast,240,2013-04-21 11:53:00
6:53 AM,33.1,27.0,78,30.02,-9999.0,WSW,8.1,-,N/A,,Overcast,250,2013-04-21 12:53:00
7:53 AM,36.0,26.1,67,30.01,-9999.0,WSW,13.8,-,N/A,,Scattered Clouds,240,2013-04-21 13:53:00
8:53 AM,37.9,26.1,62,30.01,-9999.0,WSW,20.7,-,N/A,,Scattered Clouds,240,2013-04-21 14:53:00
9:53 AM,39.9,25.0,55,30.01,-9999.0,WSW,20.7,-,N/A,,Clear,250,2013-04-21 15:53:00
10:53 AM,41.0,25.0,53,29.99,-9999.0,West,17.3,-,N/A,,Clear,260,2013-04-21 16:53:00
11:53 AM,44.1,26.1,49,29.98,-9999.0,West,19.6,32.2,N/A,,Clear,270,2013-04-21 17:53:00
12:53 PM,45.0,24.1,44,29.97,-9999.0,WSW,15.0,23.0,N/A,,Clear,250,2013-04-21 18:53:00
1:53 PM,46.0,21.9,39,29.96,-9999.0,West,19.6,25.3,N/A,,Clear,270,2013-04-21 19:53:00
2:53 PM,45.0,21.0,39,29.95,-9999.0,West,18.4,-,N/A,,Clear,260,2013-04-21 20:53:00
3:53 PM,46.0,21.0,37,29.94,-9999.0,West,16.1,-,N/A,,Clear,280,2013-04-21 21:53:00
4:53 PM,43.0,23.0,45,29.96,-9999.0,West,20.7,-,N/A,,Overcast,270,2013-04-21 22:53:00
5:53 PM,46.0,26.1,46,29.93,-9999.0,WSW,12.7,-,N/A,,Clear,240,2013-04-21 23:53:00
6:53 PM,45.0,21.0,39,29.92,-9999.0,SSW,9.2,-,N/A,,Clear,210,2013-04-22 00:53:00
7:53 PM,39.9,23.0,51,29.93,-9999.0,SW,9.2,-,N/A,,Clear,230,2013-04-22 01:53:00
8:53 PM,35.1,21.9,59,29.94,-9999.0,SSW,4.6,-,N/A,,Clear,210,2013-04-22 02:53:00
9:53 PM,36.0,23.0,59,29.94,-9999.0,South,8.1,-,N/A,,Clear,190,2013-04-22 03:53:00
10:53 PM,39.0,23.0,53,29.90,-9999.0,West,15.0,20.7,N/A,,Clear,260,2013-04-22 04:53:00
11:53 PM,37.9,26.1,62,29.86,-9999.0,WSW,20.7,-,N/A,,Partly Cloudy,240,2013-04-22 05:53:00